www.pogodaiklimat.ru

Погода и климат >> Архив погоды >> Мексика >> Тампико


ПОГОДА в Тампико

  • Прогноз погоды в Тампико
  • Монитор погоды в Тампико

АРХИВ ПОГОДЫ в Тампико

Время (UTC), дата Ветер
(напр.,м/с)
 
Видим.   Явления Облачность Т
(С)
Тd
(С)
f
(%)
Тe
(С)
Тes
(С)
Комфортность P
(гПа)
Po
(гПа)
Тmin
(С)
Tmax
(С)
R
(мм)
R24
(мм)
S
(см)
06 19.08 В 4 10 км 4/0
[Ci]
+28.8 +27.0 90 +45 +45 опасность
перегрева
1013.6 1012.6 +26.6 +39.5
09 19.08 ЮВ 2 10 км 8/8 400 м
[Cu med, cong]
+28.4 +26.6 90 +44 +44 опасность
перегрева
1013.2 1012.2
12 19.08 В 1 10 км 4/4 400 м
[Cu med, cong]
+27.4 +26.1 93 +41 +41 опасность
перегрева
1013.4 1012.4 +26.5 +39.5
15 19.08 ЮВ 1 22 км 5/3 400 м
[Cu med, cong Ac trans Ci]
+29.8 +26.6 83 +46 +52 опасность
перегрева
1014.0 1013.0
18 19.08 В 4 22 км 6/4 480 м
[Cu med, cong Ci]
+36.0 +27.4 61 +55 +63 опасность
перегрева
1013.7 1012.7 +26.5 +37.4
21 19.08 В 4 22 км 1/0
[Ci]
+36.4 +26.7 58 +54 +63 опасность
перегрева
1011.9 1010.9
00 20.08 В 4 22 км ясно +33.2 +26.9 70 +51 +52 опасность
перегрева
1012.5 1011.5 +26.5 +39.0
03 20.08 В 4 10 км ясно +29.2 +26.3 84 +44 +44 опасность
перегрева
1014.4 1013.4
06 20.08 В 3 10 км 4/1 400 м
[Cu hum Ci]
+28.2 +25.8 87 +42 +42 опасность
перегрева
1015.4 1014.4 +26.5 +39.0
09 20.08 ЮВ 2 10 км 5/4 400 м
[Cu med, cong Ci]
+26.8 +24.9 89 +38 +38 очень
душно
1014.6 1013.6
12 20.08 З 2 10 км {морось} 5/4 400 м
[Cu med, cong Ci]
+26.2 +24.6 91 +37 +37 очень
душно
1015.3 1014.3 +25.6 +39.0 0.0
15 20.08 СЗ 1 20 км 5/4 400 м
[Cu med, cong Ci]
+29.2 +25.6 81 +43 +49 опасность
перегрева
1016.8 1015.8
18 20.08 Ю 2 22 км 5/5 400 м
[Cu med, cong]
+33.6 +24.8 60 +47 +57 опасность
перегрева
1015.5 1014.5 +25.6 +35.0
21 20.08 В 5 22 км 6/1 400 м
[Cu med, cong Ci]
+34.8 +25.8 60 +50 +56 опасность
перегрева
1014.1 1013.1
00 21.08 В 4 22 км 8/0 1500 м
[Ac trans Ci]
+32.0 +24.8 66 +45 +46 опасность
перегрева
1013.3 1012.3 +25.6 +37.2
03 21.08 В 3 10 км 1/0
[Ci]
+28.6 +26.2 87 +43 +43 опасность
перегрева
1015.8 1014.8
06 21.08 В 1 10 км 3/1 400 м
[Cu hum Ci]
+27.8 +26.5 93 +43 +43 опасность
перегрева
1016.9 1015.9 +25.6 +37.2
09 21.08 ЮЗ 1 10 км 4/3 400 м
[Cu hum Ci]
+27.0 +25.9 94 +40 +40 очень
душно
1015.2 1014.2
12 21.08 З 1 10 км 4/3 400 м
[Cu hum Ci]
+26.6 +26.0 97 +40 +40 очень
душно
1016.6 1015.6 +26.2 +37.2
15 21.08 Ю 1 22 км 4/1 400 м
[Cu hum Ci]
+30.4 +26.2 78 +46 +54 опасность
перегрева
1016.5 1015.5
18 21.08 З 2 24 км 5/4 400 м
[Cu hum Ci]
+35.0 +25.2 57 +49 +61 опасность
перегрева
1014.6 1013.6 +26.2 +35.8
21 21.08 В 5 24 км 4/0
[Ci]
+35.4 +25.6 57 +50 +57 опасность
перегрева
1012.6 1011.6
00 22.08 В 6 24 км 4/1 400 м
[Cu hum Ci]
+32.2 +26.4 72 +49 +49 опасность
перегрева
1012.0 1011.0 +26.2 +37.4
03 22.08 В 3 10 км 3/3 400 м
[Cu hum]
+28.6 +25.9 85 +43 +43 опасность
перегрева
1014.1 1013.1
06 22.08 В 2 10 км 3/3 400 м
[Cu med, cong]
+27.4 +25.5 89 +40 +40 очень
душно
1014.4 1013.4 +26.2 +37.4
09 22.08 Ю 1 10 км 1/1 400 м
[Cu hum]
+27.2 +25.6 91 +40 +40 очень
душно
1013.1 1012.1
12 22.08 З 1 10 км 4/3 400 м
[Cu hum Ci]
+26.6 +25.8 95 +39 +39 очень
душно
1012.5 1011.5 +26.2 +37.4
15 22.08 Ю 2 22 км 4/1 400 м
[Cu hum Ci]
+30.8 +26.3 77 +47 +54 опасность
перегрева
1014.3 1013.3
18 22.08 З 2 24 км 3/1 400 м
[Cu hum Ci]
+35.0 +25.8 59 +50 +68 опасность
перегрева
1012.0 1011.0 +26.2 +36.4
21 22.08 В 5 24 км 4/0 300 м
[Ci]
+35.2 +26.6 61 +52 +59 опасность
перегрева
1009.5 1008.5
00 23.08 В 6 24 км 3/1 480 м
[Cu hum Ci]
+31.6 +26.1 73 +48 +48 опасность
перегрева
1009.4 1008.4 +26.2 +37.4
03 23.08 В 4 10 км 3/1 450 м
[Cu hum Ci]
+28.6 +26.2 87 +43 +43 опасность
перегрева
1011.5 1010.5
06 23.08 В 3 10 км 4/3 400 м
[Cu hum Ci]
+28.2 +25.8 87 +42 +42 опасность
перегрева
1013.4 1012.4 +26.2 +37.4
09 23.08 В 1 10 км 4/3 400 м
[Cu hum Ci]
+27.4 +25.5 89 +40 +40 очень
душно
1012.4 1011.4
12 23.08 В 1 10 км 3/3 400 м
[Cu hum]
+26.2 +25.9 98 +39 +39 очень
душно
1012.8 1011.8 +25.6 +37.4
15 23.08 Ю 1 24 км 1/1 400 м
[Cu hum]
+31.8 +26.5 74 +49 +58 опасность
перегрева
1012.7 1011.7
18 23.08 В 3 24 км 3/1 480 м
[Cu hum Ci]
+37.4 +28.2 60 +59 +74 опасность
перегрева
1010.8 1009.8 +25.6 +38.4
21 23.08 В 6 24 км 3/1 500 м
[Cu hum Ci]
+36.0 +27.7 62 +55 +60 опасность
перегрева
1010.0 1009.0
00 24.08 В 6 22 км 1/0
[Ci]
+32.0 +26.5 73 +49 +49 опасность
перегрева
1010.9 1007.9 +25.6 +39.0
03 24.08 В 4 10 км 5/3 500 м
[Cu med, cong Ci]
+29.2 +27.4 90 +47 +47 опасность
перегрева
1011.8 1010.8
06 24.08 В 3 10 км 4/4 400 м
[Cu hum]
+28.8 +27.5 93 +47 +47 опасность
перегрева
1013.5 1012.5 +25.6 +39.0
09 24.08 В 1 10 км 1/1 400 м
[Cu hum]
+27.6 +26.5 94 +42 +42 опасность
перегрева
1012.6 1011.6
12 24.08 ЮВ 2 10 км 4/4 400 м
[Cu med, cong]
+27.4 +26.9 97 +43 +43 опасность
перегрева
1012.6 1011.6 +26.5 +39.0
15 24.08 ЮВ 2 22 км 6/4 400 м
[Cu med, cong Ci]
+32.0 +27.3 76 +50 +55 опасность
перегрева
1013.9 1012.9
18 24.08 Ю 2 22 км 4/1 400 м
[Cu hum Ci]
+37.2 +26.8 55 +54 +72 опасность
перегрева
1011.7 1010.7 +26.5 +39.0
21 24.08 В 5 22 км 4/0 1500 м
[Ac trans Ci]
+35.6 +27.2 62 +54 +61 опасность
перегрева
1010.1 1009.1
00 25.08 В 6 22 км 4/0
[Ci]
+32.6 +27.7 75 +52 +52 опасность
перегрева
1009.6 1008.6 +26.5 +39.5
03 25.08 В 3 10 км 4/1 400 м
[Cu hum Ci]
+29.4 +27.6 90 +48 +48 опасность
перегрева
1011.8 1010.8
06 25.08 В 2 10 км 4/4 400 м
[Cu med, cong]
+29.2 +28.2 94 +49 +49 опасность
перегрева
1013.1 1012.1 +26.5 +39.5
09 25.08 В 2 10 км 3/3 400 м
[Cu med, cong]
+28.6 +27.3 93 +46 +46 опасность
перегрева
1011.4 1010.4
12 25.08 ЮВ 2 10 км 6/1 400 м
[Cu hum Ci]
+27.6 +26.5 94 +42 +42 опасность
перегрева
1011.9 1010.9 +27.0 +39.5
15 25.08 Ю 2 22 км 6/0
[Cs]
+31.0 +27.1 80 +49 +56 опасность
перегрева
1013.0 1012.0
18 25.08 В 3 22 км 5/1 400 м
[Cu hum Ci]
+37.2 +26.4 54 +53 +67 опасность
перегрева
1011.2 1010.2 +27.0 +38.2
21 25.08 В 5 22 км 4/0
[Ci]
+37.0 +28.0 60 +57 +64 опасность
перегрева
1009.1 1008.1
00 26.08 В 6 22 км 5/0
[Ci]
+32.8 +28.1 76 +53 +54 опасность
перегрева
1008.3 1007.3 +27.0 +39.0
03 26.08 В 4 10 км 4/1 400 м
[Cu hum Ci]
+29.6 +27.8 90 +48 +48 опасность
перегрева
1010.2 1009.2

 

Местоположение метеостанции Тампико (Мексика): широта 22.20 долгота -97.85 высота над уровнем моря 25 м.

В архиве по умолчанию представлена погода в Тампико за последнюю неделю. Архивные данные за месяц целиком и за предыдущие месяцы, начиная с января 2011 года, Вы можете получить, выбрав интересующий диапазон дат из раскрывающегося списка и нажав кнопку "Ввод!".


*Определитесь, кто Вы:
робот инопланетянин человек

Внимание! Время в таблицах - всемирное. Для получения местного времени необходимо прибавить поправку, которая равна -6 ч.

Смотрите также архив погоды в соседних городах и на ближайших метеорологических станциях:

Погода в Тамуине (Мексика) (96 км)
Погода в Маталапе (Мексика) (139 км)
Погода в Туспане (Мексика) (147 км)
Погода в Сото ла Марина (Мексика) (178 км)
Погода в Сьюдад-Виктории (Мексика) (215 км)
Погода в Рио-Верде (Мексика) (222 км)
Погода в Тулансинго (Мексика) (242 км)
Погода в Пачуке (Мексика) (248 км)
Погода в Халапе (Мексика) (311 км)
Погода в Сан-Луис-Потоси (Мексика) (314 км)

Пояснения к столбцам:

Ветер - указаны скорость ветра в м/с - средняя за 10 мин, порывы в срок и между сроками (в фигурных скобках) и направление, откуда дует ветер: С - северный, СВ - северо-восточный, В - восточный, ЮВ - юго-восточный, Ю - южный, ЮЗ - юго-западный, З - западный, СЗ - северо-западный.
Видимость - горизонтальная дальность видимости в метрах или километрах. При видимости от 1 до 10 км при отсутствии осадков обычно наблюдается дымка, при ухудшении видимости до 1 км и менее - туман. В сухую погоду видимость может ухудшаться дымом, пылью или мглою.
Явления - указаны атмосферные явления, наблюдавшиеся в срок или в последний час перед сроком; фигурными скобками обозначены явления, наблюдавшиеся между сроками (за 1-3 часа до срока); квадратными скобками обозначены град или гололедные отложения с указанием их диаметра в мм.
Облачность - указаны через наклонную черту общая и нижняя облачность в баллах и высота нижней границы облаков в метрах; квадратными скобками обозначены формы облаков: Ci - перистые, Cs - перисто-слоистые, Cc - перисто-кучевые, Ac - высококучевые, As - высокослоистые, Sc - слоисто-кучевые, Ns - слоисто-дождевые, Cu - кучевые, Cb - кучево-дождевые. Подробнее классификацию облаков см. в Атласе облаков (PDF).
T - Температура воздуха - температура, измеренная на высоте 2 м над землей.
Td - Температура точки росы - температура, при понижении до которой содержащийся в воздухе водяной пар достигнет насыщения.
f - Относительная влажность воздуха - влажноcть воздуха, измеренная на высоте 2 м над землей.
Te - Эффективная температура - температура, которую ощущает одетый по сезону человек в тени. Характеристика душности погоды. При расчете учитывается влияние влажности воздуха и скорости ветра на теплоощущения человека.
Tes - Эффективная температура на солнце - температура, которую ощущает человек, с поправкой на солнечный нагрев. Характеристика знойности погоды. Зависит от высоты солнца над горизонтом, облачности и скорости ветра. Ночью, в пасмурную погоду, а также при ветре 12 м/с и более поправка равна нулю.
P - Атмосферное давление - приведенное к уровню моря атмосферное давление.
Po - Атмосферное давление - измеренное на уровне метеостанции атмосферное давление.
Tmin - Минимальная температура - минимум температуры воздуха на высоте 2 м над землей.
Tmax - Максимальная температура - максимум температуры воздуха на высоте 2 м над землей.
R - Количество осадков - Количество выпавших осадков за период времени, мм. При наведении курсора мыши на число - период времени, за который выпало указанное количество осадков.
R24 - Количество осадков - Количество выпавших осадков за 24 часа, мм.
S - Снежный покров - Высота снежного покрова, см. При наведении курсора мыши на число - состояние снежного покрова и степень покрытия местности в баллах.